London, United Kingdom

3:19 PM BST on August 29, 2016 (GMT +0100)
London

Weather History for 03772 - April, 2014

Change the Weather History Date:

Saturday, April 12, 2014

  Actual Average Record
Temperature  
Mean Temperature 50 °F -  
Max Temperature 57 °F 58 °F - ()
Min Temperature 43 °F 43 °F - ()
Degree Days  
Heating Degree Days 15    
Moisture  
Dew Point 41 °F    
Average Humidity 66    
Maximum Humidity 87    
Minimum Humidity 42    
Precipitation  
Precipitation 0.00 in - - ()
Sea Level Pressure  
Sea Level Pressure 30.10 in    
Wind  
Wind Speed 7 mph ()    
Max Wind Speed 18 mph    
Max Gust Speed -    
Visibility 9.9 miles    
Events      
T = Trace of Precipitation, MM = Missing Value Source: Averaged Metar Reports

Daily Weather History Graph

Daily Weather History Graph

Search for Another Location

Airport or City:

Trip Planner

Search our weather history database for the weather conditions in past years. The results will help you decide how hot, cold, wet, or windy it might be!

Date:

Astronomy

Apr. 12, 2014 Rise Set
Actual Time 6:13 AM BST 7:53 PM BST
Civil Twilight 5:38 AM BST 8:28 PM BST
Nautical Twilight 4:55 AM BST 9:11 PM BST
Astronomical Twilight 4:07 AM BST 9:59 PM BST
Moon 5:00 PM BST (4/12) 4:51 AM BST (4/12)
Length of Visible Light 14h 50m
Length of Day
13h 40m
Waxing Gibbous, 91% of the Moon is Illuminated
Apr 12
Waxing Gibbous
Apr 15
Full
Apr 22
Last Quarter
Apr 29
New
May 7
First Quarter

Hourly Weather History & Observations

Time (BST) Temp. Windchill Dew Point Humidity Pressure Visibility Wind Dir Wind Speed Gust Speed Precip Events Conditions
12:00 AM 49 °F - 38 °F 55% 30.17 in 14 mi East 3.5 mph - -  
12:20 AM 50.0 °F - 37.4 °F 62% 30.15 in - NW 2.3 mph - N/A   Clear
12:50 AM 48.2 °F - 39.2 °F 71% 30.15 in - Calm Calm - N/A   Clear
1:00 AM 46 °F - 39 °F 67% 30.15 in 11 mi NNW 2.3 mph - -   Scattered Clouds
1:20 AM 48.2 °F - 39.2 °F 71% 30.15 in 6.2 mi Calm Calm - N/A   Unknown
1:50 AM 46.4 °F - 39.2 °F 76% 30.15 in 6.2 mi Calm Calm - N/A   Unknown
2:00 AM 45 °F - 38 °F 70% 30.15 in 11 mi NW 2.3 mph - -  
2:20 AM 46.4 °F - 39.2 °F 76% 30.12 in 6.2 mi Calm Calm - N/A   Unknown
2:50 AM 44.6 °F 42.2 °F 37.4 °F 76% 30.12 in - West 4.6 mph - N/A   Clear
3:00 AM 44 °F - 39 °F 75% 30.12 in 9 mi West 3.5 mph - -   Scattered Clouds
3:20 AM 44.6 °F 42.2 °F 39.2 °F 81% 30.12 in - West 4.6 mph - N/A   Clear
3:50 AM 44.6 °F 42.2 °F 41.0 °F 87% 30.12 in - West 4.6 mph - N/A   Clear
4:00 AM 44 °F - 40 °F 79% 30.12 in 10 mi WSW 3.5 mph - -   Mostly Cloudy
4:20 AM 44.6 °F 43.1 °F 41.0 °F 87% 30.12 in - West 3.5 mph - N/A   Clear
4:50 AM 44.6 °F - 41.0 °F 87% 30.09 in - Variable 2.3 mph - N/A   Clear
5:00 AM 46 °F - 40 °F 71% 30.12 in 11 mi West 3.5 mph - -   Overcast
5:20 AM 44.6 °F - 41.0 °F 87% 30.09 in - Variable 2.3 mph - N/A   Clear
5:50 AM 44.6 °F 42.2 °F 39.2 °F 81% 30.09 in - South 4.6 mph - N/A   Clear
6:00 AM 45 °F - 39 °F 72% 30.11 in 12 mi South 3.5 mph - -   Overcast
6:20 AM 44.6 °F 42.2 °F 39.2 °F 81% 30.09 in - SSW 4.6 mph - N/A   Clear
6:50 AM 44.6 °F 41.4 °F 39.2 °F 81% 30.09 in - SSW 5.8 mph - N/A   Clear
7:00 AM 46 °F - 39 °F 69% 30.12 in 11 mi SSW 4.6 mph - -  
7:20 AM 44.6 °F 41.4 °F 39.2 °F 81% 30.09 in - SSW 5.8 mph - N/A   Clear
7:50 AM 46.4 °F 42.9 °F 41.0 °F 81% 30.09 in - SSW 6.9 mph - N/A   Clear
8:00 AM 48 °F - 40 °F 64% 30.12 in 12 mi SSW 4.6 mph - -   Scattered Clouds
8:20 AM 50.0 °F - 41.0 °F 71% 30.09 in - WSW 5.8 mph - N/A   Clear
8:50 AM 51.8 °F - 41.0 °F 67% 30.12 in - West 10.4 mph - N/A   Clear
9:00 AM 51 °F - 40 °F 56% 30.12 in 18 mi West 10.4 mph - -  
9:20 AM 51.8 °F - 41.0 °F 67% 30.12 in - West 10.4 mph - N/A   Clear
9:50 AM 51.8 °F - 41.0 °F 67% 30.12 in - West 11.5 mph - N/A   Clear
10:00 AM 51 °F - 39 °F 54% 30.12 in 19 mi West 12.7 mph - -   Scattered Clouds
10:20 AM 51.8 °F - 39.2 °F 62% 30.12 in - West 11.5 mph - N/A   Clear
10:50 AM 53.6 °F - 39.2 °F 58% 30.09 in - WSW 11.5 mph - N/A   Clear
11:00 AM 54 °F - 40 °F 48% 30.12 in 25 mi West 11.5 mph - -   Partly Cloudy
11:20 AM 53.6 °F - 41.0 °F 62% 30.09 in - West 11.5 mph - N/A   Clear
11:50 AM 53.6 °F - 42.8 °F 67% 30.09 in 6.2 mi West 11.5 mph - N/A   Partly Cloudy
12:00 PM 54 °F - 41 °F 51% 30.10 in 25 mi West 9.2 mph - -   Partly Cloudy
12:20 PM 57.2 °F - 41.0 °F 55% 30.09 in 6.2 mi West 11.5 mph - N/A   Partly Cloudy
12:50 PM 57.2 °F - 41.0 °F 55% 30.06 in 6.2 mi WSW 15.0 mph - N/A   Partly Cloudy
1:00 PM 56 °F - 42 °F 47% 30.08 in 19 mi WSW 15.0 mph - -   Partly Cloudy
1:20 PM 55.4 °F - 41.0 °F 58% 30.06 in 6.2 mi West 17.3 mph - N/A   Partly Cloudy
1:50 PM 57.2 °F - 41.0 °F 55% 30.06 in 6.2 mi WSW 17.3 mph - N/A   Partly Cloudy
2:00 PM 57 °F - 40 °F 42% 30.08 in 25 mi WSW 15.0 mph - -   Partly Cloudy
2:20 PM 57.2 °F - 41.0 °F 55% 30.06 in 6.2 mi West 17.3 mph - N/A   Partly Cloudy
2:50 PM 55.4 °F - 41.0 °F 58% 30.06 in 6.2 mi West 16.1 mph - N/A   Partly Cloudy
3:00 PM 56 °F - 40 °F 43% 30.06 in 22 mi West 17.3 mph - -   Partly Cloudy
3:20 PM 57.2 °F - 41.0 °F 55% 30.06 in 6.2 mi West 17.3 mph - N/A   Partly Cloudy
3:50 PM 57.2 °F - 41.0 °F 55% 30.06 in 6.2 mi West 17.3 mph - N/A   Partly Cloudy
4:00 PM 56 °F - 40 °F 43% 30.06 in 25 mi West 18.4 mph - -   Scattered Clouds
4:20 PM 55.4 °F - 41.0 °F 58% 30.04 in 6.2 mi West 16.1 mph - N/A   Partly Cloudy
4:50 PM 55.4 °F - 41.0 °F 58% 30.04 in 6.2 mi West 13.8 mph - N/A   Partly Cloudy
5:00 PM 55 °F - 40 °F 45% 30.06 in 19 mi West 13.8 mph - -   Scattered Clouds
5:20 PM 55.4 °F - 41.0 °F 58% 30.06 in 6.2 mi WNW 16.1 mph - N/A   Partly Cloudy
5:50 PM 55.4 °F - 41.0 °F 58% 30.06 in 6.2 mi West 17.3 mph - N/A   Partly Cloudy
6:00 PM 56 °F - 40 °F 43% 30.07 in 22 mi West 16.1 mph - -   Scattered Clouds
6:20 PM 53.6 °F - 41.0 °F 62% 30.06 in 6.2 mi West 16.1 mph - N/A   Partly Cloudy
6:50 PM 53.6 °F - 42.8 °F 67% 30.06 in 6.2 mi West 17.3 mph - N/A   Partly Cloudy
7:00 PM 54 °F - 41 °F 50% 30.08 in 19 mi West 15.0 mph - -   Partly Cloudy
7:20 PM 51.8 °F - 42.8 °F 71% 30.06 in 6.2 mi West 15.0 mph - N/A   Partly Cloudy
7:50 PM 51.8 °F - 42.8 °F 71% 30.06 in 6.2 mi West 10.4 mph - N/A   Partly Cloudy
8:00 PM 52 °F - 41 °F 57% 30.09 in 19 mi WSW 10.4 mph - -   Scattered Clouds
8:20 PM 51.8 °F - 42.8 °F 71% 30.09 in 6.2 mi West 12.7 mph - N/A   Partly Cloudy
8:50 PM 51.8 °F - 42.8 °F 71% 30.09 in 6.2 mi West 9.2 mph - N/A   Partly Cloudy
9:00 PM 52 °F - 42 °F 58% 30.11 in 19 mi West 8.1 mph - -   Mostly Cloudy
9:20 PM 51.8 °F - 42.8 °F 71% 30.09 in 6.2 mi West 10.4 mph - N/A   Partly Cloudy
9:50 PM 50.0 °F - 42.8 °F 76% 30.09 in - West 12.7 mph - N/A   Clear
10:00 PM 50 °F - 42 °F 67% 30.11 in 17 mi West 13.8 mph - -   Scattered Clouds
10:20 PM 50.0 °F - 44.6 °F 82% 30.09 in - West 12.7 mph - N/A   Clear
10:50 PM 50.0 °F - 44.6 °F 82% 30.09 in - West 10.4 mph - N/A   Clear
11:00 PM 49 °F - 43 °F 73% 30.11 in 14 mi WSW 11.5 mph - -  
11:20 PM 50.0 °F - 44.6 °F 82% 30.09 in - WSW 10.4 mph - N/A   Clear
11:50 PM 50.0 °F - 44.6 °F 82% 30.12 in - West 10.4 mph - N/A   Clear